EW5705 Weather Reports


time (UTC)temp
F
wind
direction
speed
knots
gust
knots
rain 1hr
in
rain 24hr
in
rain mn
in
humidity
%
barometer
mb
20260505070104 45 253 7.0 12.2 0.00 0.24 0.00 82 1007.9
20260505064608 46 355 7.8 13.9 0.00 0.27 0.00 82 1007.5
20260505063054 46 355 7.0 13.0 0.00 0.27 0.00 81 1007.2
20260505061551 46 224 6.1 11.3 0.00 0.27 0.00 81 1007.0
20260505060047 46 355 6.1 11.3 0.00 0.27 0.00 81 1006.5
20260505054613 47 199 4.3 9.6 0.00 0.28 0.00 80 1006.3
20260505053048 47 250 5.2 12.2 0.00 0.28 0.00 80 1006.0
20260505051543 47 182 4.3 13.0 0.00 0.28 0.00 80 1005.5
20260505041544 47 355 7.8 15.6 0.00 0.28 0.00 80 1004.9
20260505040029 47 355 4.3 11.3 0.00 0.28 0.00 80 1004.6
20260505034527 47 247 5.2 13.0 0.00 0.28 0.00 80 1004.6
20260505033026 47 355 6.1 10.4 0.00 0.28 0.00 81 1004.4
20260505031529 47 355 6.1 14.8 0.00 0.28 0.00 81 1004.2
20260505030018 48 214 7.0 12.2 0.00 0.28 0.00 81 1004.1
20260505024516 48 221 9.6 16.5 0.00 0.30 0.28 78 1004.0
20260505023016 49 195 7.8 16.5 0.00 0.30 0.28 74 1003.6
20260505021517 50 187 5.2 13.0 0.00 0.30 0.28 71 1003.4
20260505020012 50 355 6.1 13.9 0.00 0.30 0.28 69 1003.4
20260505014516 50 355 6.1 11.3 0.00 0.41 0.28 68 1003.1
20260505013010 50 201 6.1 9.6 0.00 0.41 0.28 67 1002.9
20260505011512 49 207 6.1 12.2 0.00 0.41 0.28 66 1002.9
20260505010014 50 355 6.1 14.8 0.00 0.41 0.28 63 1002.8
20260505004506 50 355 6.1 11.3 0.00 0.59 0.28 61 1002.6
20260505003005 51 206 9.6 17.4 0.00 0.59 0.28 59 1002.4
20260505001504 50 218 7.0 13.0 0.00 0.59 0.28 59 1002.3
20260505000002 50 355 7.0 16.5 0.00 0.59 0.28 60 1002.1
20260504234600 49 198 7.8 13.0 0.00 0.83 0.28 60 1001.8
20260504233108 50 238 0.0 7.8 0.00 0.83 0.28 61 1001.5
20260504231557 51 231 4.3 15.6 0.00 0.83 0.28 54 1001.4
20260504230113 51 205 7.8 15.6 0.00 0.83 0.28 53 1001.2
20260504224616 52 227 10.4 19.1 0.00 1.00 0.28 52 1000.9
20260504223053 51 355 9.6 15.6 0.00 1.00 0.28 54 1000.9
20260504221551 52 355 7.8 17.4 0.00 1.00 0.28 53 1000.6
20260504220056 52 183 11.3 21.7 0.00 1.00 0.28 53 1000.5
20260504214548 52 256 9.6 20.0 0.00 1.24 0.28 55 1000.3
20260504213045 52 355 9.6 17.4 0.00 1.24 0.28 56 1000.2
20260504211543 52 237 9.6 21.7 0.00 1.24 0.28 60 1000.2
20260504210055 52 198 13.0 19.1 0.00 1.24 0.28 61 999.9
20260504204546 52 355 10.4 25.2 0.00 1.26 0.28 62 999.8
20260504203042 52 203 9.6 21.7 0.00 1.26 0.28 64 999.5
20260504201532 52 355 10.4 21.7 0.00 1.26 0.28 67 999.3
20260504200035 51 207 8.7 21.7 0.00 1.26 0.28 70 999.0
20260504194525 50 355 10.4 21.7 0.00 1.36 0.28 73 998.8
20260504193022 49 191 10.4 19.1 0.00 1.36 0.28 75 998.4
20260504191521 49 355 13.0 21.7 0.00 1.36 0.28 77 998.4
20260504190018 49 210 10.4 24.3 0.00 1.36 0.28 77 997.9
20260504184525 49 218 7.0 21.7 0.00 1.36 0.28 79 997.8
20260504183022 48 202 11.3 21.7 0.00 1.36 0.28 80 997.7
20260504181510 47 203 10.4 18.2 0.00 1.36 0.28 81 997.5
20260504180008 47 221 7.8 15.6 0.00 1.36 0.28 81 997.4
20260504174505 46 355 10.4 19.1 0.00 1.36 0.28 82 997.0
20260504173002 46 216 6.1 16.5 0.00 1.36 0.28 82 996.9
20260504171600 45 355 7.0 20.9 0.00 1.36 0.28 82 996.2
20260504081543 38 200 7.0 13.9 0.01 1.14 0.07 93 976.3